Time,TemperatureF,DewpointF,PressureIn,WindDirection,WindDirectionDegrees,WindSpeedMPH,WindSpeedGustMPH,Humidity,HourlyPrecipIn,Conditions,Clouds,dailyrainin,SoftwareType,DateUTC
2016-02-12 00:05:00,0.2,-11.8,29.94,SE,136,6.0,6.0,56,0.00,,---,0.00,VWS V15.00,2016-02-12 05:05:00,
2016-02-12 00:10:00,0.2,-12.1,29.94,ESE,114,6.0,14.0,55,0.00,,---,0.00,VWS V15.00,2016-02-12 05:10:00,
2016-02-12 00:15:00,0.1,-12.2,29.93,ESE,104,8.0,17.0,55,0.00,,---,0.00,VWS V15.00,2016-02-12 05:15:00,
2016-02-12 00:20:00,0.1,-12.3,29.93,SE,129,6.0,18.0,55,0.00,,---,0.00,VWS V15.00,2016-02-12 05:20:00,
2016-02-12 00:25:00,0.2,-12.1,29.94,SE,138,4.0,11.0,55,0.00,,---,0.00,VWS V15.00,2016-02-12 05:25:00,
2016-02-12 00:30:00,0.6,-11.8,29.94,SW,229,8.0,12.0,55,0.00,,---,0.00,VWS V15.00,2016-02-12 05:30:00,
2016-02-12 00:35:00,0.9,-11.5,29.95,SE,129,7.0,15.0,55,0.00,,---,0.00,VWS V15.00,2016-02-12 05:35:00,
2016-02-12 00:40:00,1.3,-12.2,29.95,ESE,113,13.0,22.0,52,0.00,,---,0.00,VWS V15.00,2016-02-12 05:40:00,
2016-02-12 00:45:00,0.8,-12.7,29.96,WSW,242,3.0,26.0,52,0.00,,---,0.00,VWS V15.00,2016-02-12 05:45:00,
2016-02-12 00:50:00,0.7,-12.4,29.97,ESE,115,2.0,26.0,53,0.00,,---,0.00,VWS V15.00,2016-02-12 05:50:00,
2016-02-12 00:55:00,0.6,-12.1,29.97,ESE,105,7.0,13.0,54,0.00,,---,0.00,VWS V15.00,2016-02-12 05:55:00,
2016-02-12 01:00:00,0.8,-11.9,29.97,ESE,117,4.0,13.0,54,0.00,,---,0.00,VWS V15.00,2016-02-12 06:00:00,
2016-02-12 01:05:00,0.7,-12.0,29.97,ESE,117,3.0,17.0,54,0.00,,---,0.00,VWS V15.00,2016-02-12 06:05:00,
2016-02-12 01:10:00,0.6,-11.8,29.97,ESE,117,4.0,19.0,55,0.00,,---,0.00,VWS V15.00,2016-02-12 06:10:00,
2016-02-12 01:15:00,1.0,-11.4,29.98,ESE,121,5.0,11.0,55,0.00,,---,0.00,VWS V15.00,2016-02-12 06:15:00,
2016-02-12 01:20:00,1.0,-11.4,29.97,ENE,62,5.0,18.0,55,0.00,,---,0.00,VWS V15.00,2016-02-12 06:20:00,
2016-02-12 01:30:00,1.1,-10.9,29.96,East,81,0.0,4.0,56,0.00,,---,0.00,VWS V15.00,2016-02-12 06:30:00,
2016-02-12 01:35:00,1.2,-10.1,29.96,SW,232,2.0,3.0,58,0.00,,---,0.00,VWS V15.00,2016-02-12 06:35:00,
2016-02-12 01:40:00,1.1,-9.9,29.96,ESE,123,5.0,7.0,59,0.00,,---,0.00,VWS V15.00,2016-02-12 06:40:00,
2016-02-12 01:45:00,1.9,-9.8,29.96,ESE,120,2.0,8.0,57,0.00,,---,0.00,VWS V15.00,2016-02-12 06:45:00,
2016-02-12 01:50:00,2.2,-9.9,29.97,ESE,109,14.0,14.0,56,0.00,,---,0.00,VWS V15.00,2016-02-12 06:50:00,
2016-02-12 01:55:00,1.5,-10.9,29.97,SE,128,1.0,14.0,55,0.00,,---,0.00,VWS V15.00,2016-02-12 06:55:00,
2016-02-12 02:00:00,1.3,-10.4,29.97,ESE,115,2.0,14.0,57,0.00,,---,0.00,VWS V15.00,2016-02-12 07:00:00,
2016-02-12 02:06:00,1.3,-10.4,29.97,SE,130,5.0,7.0,57,0.00,,---,0.00,VWS V15.00,2016-02-12 07:06:00,
2016-02-12 02:11:00,1.3,-10.0,29.97,WSW,256,0.0,7.0,58,0.00,,---,0.00,VWS V15.00,2016-02-12 07:11:00,
2016-02-12 02:16:00,1.0,-9.6,29.97,WSW,256,2.0,2.0,60,0.00,,---,0.00,VWS V15.00,2016-02-12 07:16:00,
2016-02-12 02:21:00,0.6,-9.3,29.97,West,266,2.0,3.0,62,0.00,,---,0.00,VWS V15.00,2016-02-12 07:21:00,
2016-02-12 02:26:00,0.7,-9.2,29.97,West,274,0.0,1.0,62,0.00,,---,0.00,VWS V15.00,2016-02-12 07:26:00,
2016-02-12 02:31:00,0.6,-9.0,29.98,ESE,112,0.0,2.0,63,0.00,,---,0.00,VWS V15.00,2016-02-12 07:31:00,
2016-02-12 02:36:00,0.4,-8.9,29.98,WSW,249,1.0,3.0,64,0.00,,---,0.00,VWS V15.00,2016-02-12 07:36:00,
2016-02-12 02:41:00,0.9,-9.1,29.98,SE,132,1.0,7.0,62,0.00,,---,0.00,VWS V15.00,2016-02-12 07:41:00,
2016-02-12 02:46:00,1.7,-9.0,29.98,ESE,116,7.0,7.0,60,0.00,,---,0.00,VWS V15.00,2016-02-12 07:46:00,
2016-02-12 02:51:00,2.2,-9.2,29.98,SE,132,0.0,9.0,58,0.00,,---,0.00,VWS V15.00,2016-02-12 07:51:00,
2016-02-12 02:56:00,2.7,-9.1,29.97,SE,133,3.0,8.0,57,0.00,,---,0.00,VWS V15.00,2016-02-12 07:56:00,
2016-02-12 03:01:00,2.9,-8.9,29.98,SW,214,0.0,8.0,57,0.00,,---,0.00,VWS V15.00,2016-02-12 08:01:00,
2016-02-12 03:11:00,2.2,-9.2,29.99,SE,143,7.0,9.0,58,0.00,,---,0.00,VWS V15.00,2016-02-12 08:11:00,
2016-02-12 03:16:00,2.4,-9.0,29.99,ESE,121,2.0,3.0,58,0.00,,---,0.00,VWS V15.00,2016-02-12 08:16:00,
2016-02-12 03:21:00,2.1,-9.6,29.99,West,260,0.0,9.0,57,0.00,,---,0.00,VWS V15.00,2016-02-12 08:21:00,
2016-02-12 03:26:00,2.1,-9.6,29.99,East,97,3.0,6.0,57,0.00,,---,0.00,VWS V15.00,2016-02-12 08:26:00,
2016-02-12 03:31:00,2.1,-9.6,29.99,SE,132,3.0,12.0,57,0.00,,---,0.00,VWS V15.00,2016-02-12 08:31:00,
2016-02-12 03:36:00,2.2,-9.9,29.99,SE,125,7.0,14.0,56,0.00,,---,0.00,VWS V15.00,2016-02-12 08:36:00,
2016-02-12 03:41:00,2.5,-10.0,29.99,ESE,118,12.0,14.0,55,0.00,,---,0.00,VWS V15.00,2016-02-12 08:41:00,
2016-02-12 03:46:00,2.6,-9.9,29.99,SE,129,2.0,12.0,55,0.00,,---,0.00,VWS V15.00,2016-02-12 08:46:00,
2016-02-12 03:51:00,2.5,-9.6,30.00,East,95,3.0,12.0,56,0.00,,---,0.00,VWS V15.00,2016-02-12 08:51:00,
2016-02-12 03:56:00,2.3,-9.8,29.99,SE,131,4.0,10.0,56,0.00,,---,0.00,VWS V15.00,2016-02-12 08:56:00,
2016-02-12 04:01:00,2.3,-9.8,30.00,SE,131,4.0,10.0,56,0.00,,---,0.00,VWS V15.00,2016-02-12 09:01:00,
2016-02-12 04:06:00,2.3,-9.8,30.00,SE,131,4.0,4.0,56,0.00,,---,0.00,VWS V15.00,2016-02-12 09:06:00,
2016-02-12 04:11:00,2.3,-9.8,30.00,SE,131,4.0,4.0,56,0.00,,---,0.00,VWS V15.00,2016-02-12 09:11:00,
2016-02-12 04:21:00,2.3,-9.8,30.00,SE,131,4.0,4.0,56,0.00,,---,0.00,VWS V15.00,2016-02-12 09:21:00,
2016-02-12 04:26:00,2.3,-9.8,30.01,SE,131,4.0,4.0,56,0.00,,---,0.00,VWS V15.00,2016-02-12 09:26:00,
2016-02-12 04:36:00,2.3,-9.8,30.01,SE,131,4.0,4.0,56,0.00,,---,0.00,VWS V15.00,2016-02-12 09:36:00,
2016-02-12 04:42:00,2.3,-9.8,30.01,SE,131,4.0,4.0,56,0.00,,---,0.00,VWS V15.00,2016-02-12 09:42:00,
2016-02-12 04:47:00,2.3,-9.8,30.01,SE,131,4.0,4.0,56,0.00,,---,0.00,VWS V15.00,2016-02-12 09:47:00,
2016-02-12 04:52:00,2.3,-9.8,30.02,SE,131,4.0,4.0,56,0.00,,---,0.00,VWS V15.00,2016-02-12 09:52:00,
2016-02-12 04:57:00,2.3,-9.8,30.02,SE,131,4.0,4.0,56,0.00,,---,0.00,VWS V15.00,2016-02-12 09:57:00,
2016-02-12 05:02:00,2.3,-9.8,30.02,SE,131,4.0,4.0,56,0.00,,---,0.00,VWS V15.00,2016-02-12 10:02:00,
2016-02-12 05:07:00,2.3,-9.8,30.02,SE,131,4.0,4.0,56,0.00,,---,0.00,VWS V15.00,2016-02-12 10:07:00,
2016-02-12 05:12:00,2.3,-9.8,30.03,SE,131,4.0,4.0,56,0.00,,---,0.00,VWS V15.00,2016-02-12 10:12:00,
2016-02-12 05:17:00,2.3,-9.8,30.03,SE,131,4.0,4.0,56,0.00,,---,0.00,VWS V15.00,2016-02-12 10:17:00,
2016-02-12 05:22:00,2.3,-9.8,30.03,SE,131,4.0,4.0,56,0.00,,---,0.00,VWS V15.00,2016-02-12 10:22:00,
2016-02-12 05:27:00,2.3,-9.8,30.03,SE,131,4.0,4.0,56,0.00,,---,0.00,VWS V15.00,2016-02-12 10:27:00,
2016-02-12 05:32:00,2.3,-9.8,30.04,SE,131,4.0,4.0,56,0.00,,---,0.00,VWS V15.00,2016-02-12 10:32:00,
2016-02-12 05:37:00,2.3,-9.8,30.04,SE,131,4.0,4.0,56,0.00,,---,0.00,VWS V15.00,2016-02-12 10:37:00,
2016-02-12 05:42:00,2.3,-9.8,30.04,SE,131,4.0,4.0,56,0.00,,---,0.00,VWS V15.00,2016-02-12 10:42:00,
2016-02-12 05:47:00,2.3,-9.8,30.04,SE,131,4.0,4.0,56,0.00,,---,0.00,VWS V15.00,2016-02-12 10:47:00,
2016-02-12 05:52:00,2.3,-9.8,30.03,SE,131,4.0,4.0,56,0.00,,---,0.00,VWS V15.00,2016-02-12 10:52:00,
2016-02-12 05:57:00,2.3,-9.8,30.03,SE,131,4.0,4.0,56,0.00,,---,0.00,VWS V15.00,2016-02-12 10:57:00,
2016-02-12 06:02:00,2.3,-9.8,30.03,SE,131,4.0,4.0,56,0.00,,---,0.00,VWS V15.00,2016-02-12 11:02:00,
2016-02-12 06:07:00,2.3,-9.8,30.03,SE,131,4.0,4.0,56,0.00,,---,0.00,VWS V15.00,2016-02-12 11:07:00,
2016-02-12 06:12:00,2.3,-9.8,30.05,SE,131,4.0,4.0,56,0.00,,---,0.00,VWS V15.00,2016-02-12 11:12:00,
2016-02-12 06:17:00,2.3,-9.8,30.05,SE,131,4.0,4.0,56,0.00,,---,0.00,VWS V15.00,2016-02-12 11:17:00,
2016-02-12 06:22:00,2.3,-9.8,30.05,SE,131,4.0,4.0,56,0.00,,---,0.00,VWS V15.00,2016-02-12 11:22:00,
2016-02-12 06:27:00,2.3,-9.8,30.06,SE,131,4.0,4.0,56,0.00,,---,0.00,VWS V15.00,2016-02-12 11:27:00,
2016-02-12 06:32:00,2.3,-9.8,30.06,SE,131,4.0,4.0,56,0.00,,---,0.00,VWS V15.00,2016-02-12 11:32:00,
2016-02-12 06:37:00,2.3,-9.8,30.06,SE,131,4.0,4.0,56,0.00,,---,0.00,VWS V15.00,2016-02-12 11:37:00,
2016-02-12 06:42:00,2.3,-9.8,30.06,SE,131,4.0,4.0,56,0.00,,---,0.00,VWS V15.00,2016-02-12 11:42:00,
2016-02-12 06:52:00,2.3,-9.8,30.06,SE,131,4.0,4.0,56,0.00,,---,0.00,VWS V15.00,2016-02-12 11:52:00,
2016-02-12 06:57:00,2.3,-9.8,30.07,SE,131,4.0,4.0,56,0.00,,---,0.00,VWS V15.00,2016-02-12 11:57:00,
2016-02-12 07:02:00,2.3,-9.8,30.07,SE,131,4.0,4.0,56,0.00,,---,0.00,VWS V15.00,2016-02-12 12:02:00,
2016-02-12 07:07:00,2.3,-9.8,30.07,SE,131,4.0,4.0,56,0.00,,---,0.00,VWS V15.00,2016-02-12 12:07:00,
2016-02-12 07:12:00,2.3,-9.8,30.07,SE,131,4.0,4.0,56,0.00,,---,0.00,VWS V15.00,2016-02-12 12:12:00,
2016-02-12 07:17:00,2.3,-9.8,30.07,SE,131,4.0,4.0,56,0.00,,---,0.00,VWS V15.00,2016-02-12 12:17:00,
2016-02-12 07:22:00,2.3,-9.8,30.08,SE,131,4.0,4.0,56,0.00,,---,0.00,VWS V15.00,2016-02-12 12:22:00,
2016-02-12 07:32:00,-0.1,-7.8,30.08,West,264,0.0,2.0,69,0.00,,---,0.00,VWS V15.00,2016-02-12 12:32:00,
2016-02-12 07:38:00,-0.3,-8.0,30.08,West,263,0.0,1.0,69,0.00,,---,0.00,VWS V15.00,2016-02-12 12:38:00,
2016-02-12 07:48:00,0.2,-7.8,30.08,West,264,0.0,2.0,68,0.00,,---,0.00,VWS V15.00,2016-02-12 12:48:00,
2016-02-12 07:53:00,1.1,-7.6,30.08,West,264,1.0,2.0,66,0.00,,---,0.00,VWS V15.00,2016-02-12 12:53:00,
2016-02-12 08:03:00,1.9,-7.1,30.09,NNE,18,1.0,2.0,65,0.00,,---,0.00,VWS V15.00,2016-02-12 13:03:00,
2016-02-12 08:08:00,2.2,-7.2,30.08,NNE,13,1.0,2.0,64,0.00,,---,0.00,VWS V15.00,2016-02-12 13:08:00,
2016-02-12 08:13:00,2.6,-7.1,30.09,WNW,284,1.0,2.0,63,0.00,,---,0.00,VWS V15.00,2016-02-12 13:13:00,
2016-02-12 08:18:00,3.0,-7.1,30.08,NE,44,2.0,2.0,62,0.00,,---,0.00,VWS V15.00,2016-02-12 13:18:00,
2016-02-12 08:23:00,3.5,-6.6,30.08,West,281,0.0,3.0,62,0.00,,---,0.00,VWS V15.00,2016-02-12 13:23:00,
2016-02-12 08:28:00,3.9,-6.5,30.09,West,267,1.0,1.0,61,0.00,,---,0.00,VWS V15.00,2016-02-12 13:28:00,
2016-02-12 08:33:00,4.2,-6.9,30.09,NNE,14,0.0,3.0,59,0.00,,---,0.00,VWS V15.00,2016-02-12 13:33:00,
2016-02-12 08:38:00,4.7,-6.1,30.09,ENE,60,0.0,1.0,60,0.00,,---,0.00,VWS V15.00,2016-02-12 13:38:00,
2016-02-12 08:53:00,5.9,-6.0,30.09,NNW,346,3.0,3.0,57,0.00,,---,0.00,VWS V15.00,2016-02-12 13:53:00,
2016-02-12 08:58:00,6.8,-5.2,30.09,ESE,109,6.0,9.0,57,0.00,,---,0.00,VWS V15.00,2016-02-12 13:58:00,
2016-02-12 09:03:00,7.4,-5.8,30.09,SE,128,5.0,16.0,54,0.00,,---,0.00,VWS V15.00,2016-02-12 14:03:00,
2016-02-12 09:08:00,7.9,-5.7,30.09,SE,141,4.0,16.0,53,0.00,,---,0.00,VWS V15.00,2016-02-12 14:08:00,
2016-02-12 09:18:00,8.3,-6.1,30.09,ESE,117,14.0,19.0,51,0.00,,---,0.00,VWS V15.00,2016-02-12 14:18:00,
2016-02-12 09:23:00,8.3,-6.1,30.10,SE,139,7.0,20.0,51,0.00,,---,0.00,VWS V15.00,2016-02-12 14:23:00,
2016-02-12 09:28:00,8.4,-6.4,30.09,ESE,123,8.0,22.0,50,0.00,,---,0.00,VWS V15.00,2016-02-12 14:28:00,
2016-02-12 09:33:00,8.7,-6.1,30.09,East,101,10.0,24.0,50,0.00,,---,0.00,VWS V15.00,2016-02-12 14:33:00,
2016-02-12 09:43:00,9.3,-5.6,30.09,ESE,119,12.0,12.0,50,0.00,,---,0.00,VWS V15.00,2016-02-12 14:43:00,
2016-02-12 09:48:00,9.6,-6.1,30.09,ESE,109,6.0,16.0,48,0.00,,---,0.00,VWS V15.00,2016-02-12 14:48:00,
2016-02-12 09:53:00,10.2,-5.6,30.09,ESE,122,9.0,11.0,48,0.00,,---,0.00,VWS V15.00,2016-02-12 14:53:00,
2016-02-12 09:58:00,11.0,-4.8,30.09,East,79,8.0,11.0,48,0.00,,---,0.00,VWS V15.00,2016-02-12 14:58:00,
2016-02-12 10:08:00,12.0,-4.8,30.09,ESE,111,10.0,19.0,46,0.00,,---,0.00,VWS V15.00,2016-02-12 15:08:00,
2016-02-12 10:13:00,12.2,-5.1,30.08,SSE,159,2.0,7.0,45,0.00,,---,0.00,VWS V15.00,2016-02-12 15:13:00,
2016-02-12 10:19:00,12.7,-4.6,30.08,ESE,107,3.0,14.0,45,0.00,,---,0.00,VWS V15.00,2016-02-12 15:19:00,
2016-02-12 10:24:00,13.2,-4.2,30.08,ENE,77,10.0,10.0,45,0.00,,---,0.00,VWS V15.00,2016-02-12 15:24:00,
2016-02-12 10:29:00,13.4,-4.4,30.08,ENE,60,3.0,12.0,44,0.00,,---,0.00,VWS V15.00,2016-02-12 15:29:00,
2016-02-12 10:34:00,13.9,-3.5,30.07,ESE,123,5.0,9.0,45,0.00,,---,0.00,VWS V15.00,2016-02-12 15:34:00,
2016-02-12 10:39:00,14.3,-3.1,30.07,ESE,111,6.0,13.0,45,0.00,,---,0.00,VWS V15.00,2016-02-12 15:39:00,
2016-02-12 10:44:00,14.8,-3.2,30.07,SE,128,13.0,13.0,44,0.00,,---,0.00,VWS V15.00,2016-02-12 15:44:00,
2016-02-12 10:49:00,15.2,-2.3,30.07,SE,135,5.0,15.0,45,0.00,,---,0.00,VWS V15.00,2016-02-12 15:49:00,
2016-02-12 10:54:00,15.4,-2.6,30.07,ESE,116,8.0,12.0,44,0.00,,---,0.00,VWS V15.00,2016-02-12 15:54:00,
2016-02-12 10:59:00,15.4,-2.6,30.07,ENE,73,14.0,17.0,44,0.00,,---,0.00,VWS V15.00,2016-02-12 15:59:00,
2016-02-12 11:04:00,15.5,-2.5,30.06,ENE,65,12.0,12.0,44,0.00,,---,0.00,VWS V15.00,2016-02-12 16:04:00,
2016-02-12 11:09:00,15.9,-1.7,30.06,NE,37,10.0,17.0,45,0.00,,---,0.00,VWS V15.00,2016-02-12 16:09:00,
2016-02-12 11:14:00,16.7,-0.5,30.06,NE,56,3.0,5.0,46,0.00,,---,0.00,VWS V15.00,2016-02-12 16:14:00,
2016-02-12 11:19:00,17.5,0.3,30.06,East,89,9.0,11.0,46,0.00,,---,0.00,VWS V15.00,2016-02-12 16:19:00,
2016-02-12 11:24:00,17.9,0.6,30.06,ENE,64,6.0,8.0,46,0.00,,---,0.00,VWS V15.00,2016-02-12 16:24:00,
2016-02-12 11:29:00,18.2,0.9,30.06,ESE,119,7.0,13.0,46,0.00,,---,0.00,VWS V15.00,2016-02-12 16:29:00,
2016-02-12 11:34:00,18.3,0.5,30.06,ESE,109,11.0,11.0,45,0.00,,---,0.00,VWS V15.00,2016-02-12 16:34:00,
2016-02-12 11:39:00,18.0,0.2,30.06,SE,139,5.0,12.0,45,0.00,,---,0.00,VWS V15.00,2016-02-12 16:39:00,
2016-02-12 11:44:00,17.9,0.6,30.06,ESE,121,6.0,9.0,46,0.00,,---,0.00,VWS V15.00,2016-02-12 16:44:00,
2016-02-12 11:49:00,17.7,0.4,30.06,ESE,117,6.0,9.0,46,0.00,,---,0.00,VWS V15.00,2016-02-12 16:49:00,
2016-02-12 11:54:00,17.2,0.0,30.06,East,85,7.0,7.0,46,0.00,,---,0.00,VWS V15.00,2016-02-12 16:54:00,
2016-02-12 11:59:00,16.9,-0.3,30.05,East,91,6.0,13.0,46,0.00,,---,0.00,VWS V15.00,2016-02-12 16:59:00,
2016-02-12 12:04:00,16.6,0.3,30.05,East,94,12.0,12.0,48,0.00,,---,0.00,VWS V15.00,2016-02-12 17:04:00,
2016-02-12 12:09:00,17.0,0.7,30.06,SE,129,6.0,16.0,48,0.00,,---,0.00,VWS V15.00,2016-02-12 17:09:00,
2016-02-12 12:14:00,17.2,0.9,30.06,ESE,118,9.0,9.0,48,0.00,,---,0.00,VWS V15.00,2016-02-12 17:14:00,
2016-02-12 12:19:00,17.5,1.6,30.05,SE,129,12.0,16.0,49,0.00,,---,0.00,VWS V15.00,2016-02-12 17:19:00,
2016-02-12 12:24:00,16.9,1.1,30.05,SE,133,6.0,9.0,49,0.00,,---,0.00,VWS V15.00,2016-02-12 17:24:00,
2016-02-12 12:29:00,16.8,1.4,30.05,ESE,116,8.0,18.0,50,0.00,,---,0.00,VWS V15.00,2016-02-12 17:29:00,
2016-02-12 12:34:00,17.3,1.9,30.05,ESE,121,11.0,11.0,50,0.00,,---,0.00,VWS V15.00,2016-02-12 17:34:00,
2016-02-12 12:39:00,17.6,2.6,30.04,ENE,71,4.0,11.0,51,0.00,,---,0.00,VWS V15.00,2016-02-12 17:39:00,
2016-02-12 12:44:00,17.8,2.8,30.04,ESE,103,11.0,11.0,51,0.00,,---,0.00,VWS V15.00,2016-02-12 17:44:00,
2016-02-12 12:49:00,17.7,2.7,30.03,SW,229,6.0,15.0,51,0.00,,---,0.00,VWS V15.00,2016-02-12 17:49:00,
2016-02-12 12:54:00,17.8,2.8,30.03,ESE,113,7.0,9.0,51,0.00,,---,0.00,VWS V15.00,2016-02-12 17:54:00,
2016-02-12 12:59:00,17.5,2.5,30.03,ESE,115,9.0,10.0,51,0.00,,---,0.00,VWS V15.00,2016-02-12 17:59:00,
2016-02-12 13:05:00,17.6,3.0,30.03,NE,50,3.0,4.0,52,0.00,,---,0.00,VWS V15.00,2016-02-12 18:05:00,
2016-02-12 13:10:00,17.7,3.1,30.03,SE,132,5.0,13.0,52,0.00,,---,0.00,VWS V15.00,2016-02-12 18:10:00,
2016-02-12 13:15:00,17.9,4.1,30.03,West,260,0.0,5.0,54,0.00,,---,0.00,VWS V15.00,2016-02-12 18:15:00,
2016-02-12 13:20:00,18.2,3.1,30.02,WSW,250,3.0,10.0,51,0.00,,---,0.00,VWS V15.00,2016-02-12 18:20:00,
2016-02-12 13:25:00,18.3,3.6,30.02,SE,127,1.0,4.0,52,0.00,,---,0.00,VWS V15.00,2016-02-12 18:25:00,
2016-02-12 13:30:00,18.4,3.3,30.02,SW,235,2.0,7.0,51,0.00,,---,0.00,VWS V15.00,2016-02-12 18:30:00,
2016-02-12 13:35:00,18.4,3.3,30.02,ESE,123,1.0,7.0,51,0.00,,---,0.00,VWS V15.00,2016-02-12 18:35:00,
2016-02-12 13:40:00,18.6,4.3,30.01,ESE,121,3.0,7.0,53,0.00,,---,0.00,VWS V15.00,2016-02-12 18:40:00,
2016-02-12 13:45:00,18.7,3.6,30.01,SW,218,3.0,4.0,51,0.00,,---,0.00,VWS V15.00,2016-02-12 18:45:00,
2016-02-12 13:50:00,18.5,3.4,30.01,West,264,0.0,5.0,51,0.00,,---,0.00,VWS V15.00,2016-02-12 18:50:00,
2016-02-12 13:55:00,19.1,4.4,30.01,SE,125,2.0,5.0,52,0.00,,---,0.00,VWS V15.00,2016-02-12 18:55:00,
2016-02-12 14:05:00,19.4,3.8,30.01,SE,124,5.0,5.0,50,0.00,,---,0.00,VWS V15.00,2016-02-12 19:05:00,
2016-02-12 14:10:00,19.1,3.5,30.01,ESE,121,7.0,8.0,50,0.00,,---,0.00,VWS V15.00,2016-02-12 19:10:00,
2016-02-12 14:15:00,19.1,3.1,30.00,East,85,0.0,6.0,49,0.00,,---,0.00,VWS V15.00,2016-02-12 19:15:00,
2016-02-12 14:20:00,19.2,2.7,30.01,NE,56,0.0,10.0,48,0.00,,---,0.00,VWS V15.00,2016-02-12 19:20:00,
2016-02-12 14:25:00,19.6,3.1,30.00,NW,310,1.0,2.0,48,0.00,,---,0.00,VWS V15.00,2016-02-12 19:25:00,
2016-02-12 14:30:00,19.5,3.0,30.00,East,98,0.0,2.0,48,0.00,,---,0.00,VWS V15.00,2016-02-12 19:30:00,
2016-02-12 14:40:00,19.3,2.8,30.00,NNE,18,3.0,3.0,48,0.00,,---,0.00,VWS V15.00,2016-02-12 19:40:00,
2016-02-12 14:45:00,19.1,2.2,30.00,ESE,120,1.0,3.0,47,0.00,,---,0.00,VWS V15.00,2016-02-12 19:45:00,
2016-02-12 14:50:00,19.1,3.1,30.00,North,358,0.0,3.0,49,0.00,,---,0.00,VWS V15.00,2016-02-12 19:50:00,
2016-02-12 14:55:00,19.3,2.4,30.00,NE,46,1.0,4.0,47,0.00,,---,0.00,VWS V15.00,2016-02-12 19:55:00,
2016-02-12 15:00:00,19.4,2.0,30.00,West,264,0.0,4.0,46,0.00,,---,0.00,VWS V15.00,2016-02-12 20:00:00,
2016-02-12 15:05:00,19.6,2.2,30.00,SE,126,4.0,4.0,46,0.00,,---,0.00,VWS V15.00,2016-02-12 20:05:00,
2016-02-12 15:10:00,19.4,1.5,30.00,SE,124,0.0,4.0,45,0.00,,---,0.00,VWS V15.00,2016-02-12 20:10:00,
2016-02-12 15:15:00,19.9,2.9,30.00,ESE,113,0.0,2.0,47,0.00,,---,0.00,VWS V15.00,2016-02-12 20:15:00,
2016-02-12 15:20:00,19.9,2.5,30.00,WNW,295,2.0,6.0,46,0.00,,---,0.00,VWS V15.00,2016-02-12 20:20:00,
2016-02-12 15:25:00,19.8,3.7,30.00,East,88,4.0,8.0,49,0.00,,---,0.00,VWS V15.00,2016-02-12 20:25:00,
2016-02-12 15:30:00,19.5,2.6,30.00,ESE,123,4.0,8.0,47,0.00,,---,0.00,VWS V15.00,2016-02-12 20:30:00,
2016-02-12 15:35:00,19.7,3.7,30.00,ESE,111,0.0,2.0,49,0.00,,---,0.00,VWS V15.00,2016-02-12 20:35:00,
2016-02-12 15:41:00,19.8,3.3,30.00,East,94,2.0,7.0,48,0.00,,---,0.00,VWS V15.00,2016-02-12 20:41:00,
2016-02-12 15:46:00,19.5,2.6,30.00,ENE,78,5.0,8.0,47,0.00,,---,0.00,VWS V15.00,2016-02-12 20:46:00,
2016-02-12 15:51:00,19.6,3.5,30.00,ESE,113,1.0,10.0,49,0.00,,---,0.00,VWS V15.00,2016-02-12 20:51:00,
2016-02-12 15:56:00,19.9,2.9,30.00,ESE,119,4.0,9.0,47,0.00,,---,0.00,VWS V15.00,2016-02-12 20:56:00,
2016-02-12 16:01:00,20.1,3.1,30.00,SE,126,5.0,9.0,47,0.00,,---,0.00,VWS V15.00,2016-02-12 21:01:00,
2016-02-12 16:06:00,19.9,2.9,30.00,ESE,110,4.0,8.0,47,0.00,,---,0.00,VWS V15.00,2016-02-12 21:06:00,
2016-02-12 16:11:00,19.8,3.3,30.00,ESE,118,4.0,8.0,48,0.00,,---,0.00,VWS V15.00,2016-02-12 21:11:00,
2016-02-12 16:16:00,19.8,3.3,30.00,NE,46,2.0,5.0,48,0.00,,---,0.00,VWS V15.00,2016-02-12 21:16:00,
2016-02-12 16:21:00,19.9,3.4,30.00,ENE,71,1.0,5.0,48,0.00,,---,0.00,VWS V15.00,2016-02-12 21:21:00,
2016-02-12 16:26:00,20.1,3.6,30.00,ESE,115,0.0,6.0,48,0.00,,---,0.00,VWS V15.00,2016-02-12 21:26:00,
2016-02-12 16:31:00,20.0,3.9,30.00,East,81,1.0,6.0,49,0.00,,---,0.00,VWS V15.00,2016-02-12 21:31:00,
2016-02-12 16:36:00,19.4,2.9,30.00,ESE,108,0.0,6.0,48,0.00,,---,0.00,VWS V15.00,2016-02-12 21:36:00,
2016-02-12 16:41:00,18.9,3.3,30.00,NE,41,1.0,6.0,50,0.00,,---,0.00,VWS V15.00,2016-02-12 21:41:00,
2016-02-12 16:46:00,18.5,3.4,30.00,East,88,0.0,3.0,51,0.00,,---,0.00,VWS V15.00,2016-02-12 21:46:00,
2016-02-12 16:51:00,18.2,3.5,30.00,SE,124,0.0,3.0,52,0.00,,---,0.00,VWS V15.00,2016-02-12 21:51:00,
2016-02-12 16:56:00,17.9,3.7,29.99,SE,124,1.0,1.0,53,0.00,,---,0.00,VWS V15.00,2016-02-12 21:56:00,
2016-02-12 17:01:00,17.5,3.3,29.99,ESE,122,0.0,1.0,53,0.00,,---,0.00,VWS V15.00,2016-02-12 22:01:00,
2016-02-12 17:06:00,17.2,3.0,29.99,ESE,122,1.0,1.0,53,0.00,,---,0.00,VWS V15.00,2016-02-12 22:06:00,
2016-02-12 17:11:00,17.0,2.8,29.99,ESE,123,0.0,1.0,53,0.00,,---,0.00,VWS V15.00,2016-02-12 22:11:00,
2016-02-12 17:16:00,16.7,3.0,29.99,ESE,123,0.0,1.0,54,0.00,,---,0.00,VWS V15.00,2016-02-12 22:16:00,
2016-02-12 17:21:00,16.5,3.2,29.99,ESE,121,0.0,2.0,55,0.00,,---,0.00,VWS V15.00,2016-02-12 22:21:00,
2016-02-12 17:26:00,16.2,3.7,29.99,ESE,122,0.0,0.0,57,0.00,,---,0.00,VWS V15.00,2016-02-12 22:26:00,
2016-02-12 17:31:00,15.7,3.6,29.99,ESE,121,0.0,0.0,58,0.00,,---,0.00,VWS V15.00,2016-02-12 22:31:00,
2016-02-12 17:36:00,15.3,3.5,29.99,ESE,121,0.0,0.0,59,0.00,,---,0.00,VWS V15.00,2016-02-12 22:36:00,
2016-02-12 17:41:00,14.8,3.4,29.99,ESE,121,0.0,1.0,60,0.00,,---,0.00,VWS V15.00,2016-02-12 22:41:00,
2016-02-12 17:46:00,14.3,3.3,29.99,ESE,122,0.0,0.0,61,0.00,,---,0.00,VWS V15.00,2016-02-12 22:46:00,
2016-02-12 17:51:00,13.9,4.0,29.99,ESE,121,0.0,0.0,64,0.00,,---,0.00,VWS V15.00,2016-02-12 22:51:00,
2016-02-12 17:56:00,13.5,3.9,29.99,ESE,122,0.0,0.0,65,0.00,,---,0.00,VWS V15.00,2016-02-12 22:56:00,
2016-02-12 18:02:00,13.1,3.9,29.99,ESE,121,0.0,0.0,66,0.00,,---,0.00,VWS V15.00,2016-02-12 23:02:00,
2016-02-12 18:07:00,12.8,3.6,30.00,ESE,121,0.0,1.0,66,0.00,,---,0.00,VWS V15.00,2016-02-12 23:07:00,
2016-02-12 18:12:00,12.5,3.6,30.00,ESE,122,0.0,1.0,67,0.00,,---,0.00,VWS V15.00,2016-02-12 23:12:00,
2016-02-12 18:17:00,12.2,3.7,30.00,ESE,121,0.0,0.0,68,0.00,,---,0.00,VWS V15.00,2016-02-12 23:17:00,
2016-02-12 18:22:00,11.9,3.7,30.00,ESE,122,0.0,0.0,69,0.00,,---,0.00,VWS V15.00,2016-02-12 23:22:00,
2016-02-12 18:27:00,11.7,3.8,30.00,ESE,121,0.0,1.0,70,0.00,,---,0.00,VWS V15.00,2016-02-12 23:27:00,
2016-02-12 18:32:00,11.5,3.9,30.00,ESE,121,0.0,1.0,71,0.00,,---,0.00,VWS V15.00,2016-02-12 23:32:00,
2016-02-12 18:37:00,11.2,4.0,30.00,ESE,122,0.0,0.0,72,0.00,,---,0.00,VWS V15.00,2016-02-12 23:37:00,
2016-02-12 18:42:00,10.9,3.7,29.99,ESE,122,0.0,1.0,72,0.00,,---,0.00,VWS V15.00,2016-02-12 23:42:00,
2016-02-12 18:47:00,10.7,3.8,29.99,ESE,121,0.0,1.0,73,0.00,,---,0.00,VWS V15.00,2016-02-12 23:47:00,
2016-02-12 18:52:00,10.7,4.1,30.00,ESE,122,0.0,1.0,74,0.00,,---,0.00,VWS V15.00,2016-02-12 23:52:00,
2016-02-12 18:57:00,10.6,4.0,30.00,ESE,122,0.0,0.0,74,0.00,,---,0.00,VWS V15.00,2016-02-12 23:57:00,
2016-02-12 19:07:00,10.4,4.1,30.00,ESE,122,0.0,0.0,75,0.00,,---,0.00,VWS V15.00,2016-02-13 00:07:00,
2016-02-12 19:12:00,10.7,4.6,30.00,ESE,122,0.0,1.0,76,0.00,,---,0.00,VWS V15.00,2016-02-13 00:12:00,
2016-02-12 19:17:00,10.9,4.8,30.00,ESE,122,0.0,0.0,76,0.00,,---,0.00,VWS V15.00,2016-02-13 00:17:00,
2016-02-12 19:22:00,10.9,4.8,29.99,ESE,122,0.0,1.0,76,0.00,,---,0.00,VWS V15.00,2016-02-13 00:22:00,
2016-02-12 19:27:00,11.0,4.9,29.99,ESE,121,1.0,1.0,76,0.00,,---,0.00,VWS V15.00,2016-02-13 00:27:00,
2016-02-12 19:32:00,10.9,4.8,29.99,ESE,121,0.0,1.0,76,0.00,,---,0.00,VWS V15.00,2016-02-13 00:32:00,
2016-02-12 19:37:00,10.9,4.8,29.99,ESE,122,0.0,1.0,76,0.00,,---,0.00,VWS V15.00,2016-02-13 00:37:00,
2016-02-12 19:42:00,10.9,4.8,29.99,ESE,122,0.0,1.0,76,0.00,,---,0.00,VWS V15.00,2016-02-13 00:42:00,
2016-02-12 19:47:00,10.7,4.6,29.99,ESE,121,0.0,0.0,76,0.00,,---,0.00,VWS V15.00,2016-02-13 00:47:00,
2016-02-12 19:52:00,10.4,4.3,29.99,ESE,122,0.0,0.0,76,0.00,,---,0.00,VWS V15.00,2016-02-13 00:52:00,
2016-02-12 19:57:00,10.2,4.2,29.99,ESE,122,0.0,0.0,76,0.00,,---,0.00,VWS V15.00,2016-02-13 00:57:00,
2016-02-12 20:02:00,9.9,3.9,29.98,ESE,122,0.0,1.0,76,0.00,,---,0.00,VWS V15.00,2016-02-13 01:02:00,
2016-02-12 20:07:00,9.5,3.8,29.98,ESE,121,0.0,0.0,77,0.00,,---,0.00,VWS V15.00,2016-02-13 01:07:00,
2016-02-12 20:12:00,9.2,3.5,29.98,ESE,122,0.0,0.0,77,0.00,,---,0.00,VWS V15.00,2016-02-13 01:12:00,
2016-02-12 20:17:00,9.0,3.5,29.98,ESE,121,0.0,0.0,78,0.00,,---,0.00,VWS V15.00,2016-02-13 01:17:00,
2016-02-12 20:22:00,8.8,3.4,29.97,ESE,122,0.0,0.0,78,0.00,,---,0.00,VWS V15.00,2016-02-13 01:22:00,
2016-02-12 20:27:00,8.5,3.1,29.97,ESE,122,0.0,0.0,78,0.00,,---,0.00,VWS V15.00,2016-02-13 01:27:00,
2016-02-12 20:32:00,8.4,3.2,29.97,ESE,122,0.0,0.0,79,0.00,,---,0.00,VWS V15.00,2016-02-13 01:32:00,
2016-02-12 20:37:00,8.2,3.0,29.97,ESE,121,0.0,0.0,79,0.00,,---,0.00,VWS V15.00,2016-02-13 01:37:00,
2016-02-12 20:42:00,7.9,2.8,29.97,ESE,121,0.0,0.0,79,0.00,,---,0.00,VWS V15.00,2016-02-13 01:42:00,
2016-02-12 20:47:00,7.6,2.5,29.96,ESE,122,0.0,0.0,79,0.00,,---,0.00,VWS V15.00,2016-02-13 01:47:00,
2016-02-12 20:52:00,7.2,2.1,29.96,ESE,122,1.0,1.0,79,0.00,,---,0.00,VWS V15.00,2016-02-13 01:52:00,
2016-02-12 20:57:00,7.0,2.2,29.96,ESE,122,0.0,2.0,80,0.00,,---,0.00,VWS V15.00,2016-02-13 01:57:00,
2016-02-12 21:02:00,6.9,2.3,29.96,ESE,121,0.0,2.0,81,0.00,,---,0.00,VWS V15.00,2016-02-13 02:02:00,
2016-02-12 21:07:00,6.8,2.2,29.95,ESE,122,0.0,0.0,81,0.00,,---,0.00,VWS V15.00,2016-02-13 02:07:00,
2016-02-12 21:13:00,6.7,2.1,29.96,ESE,122,0.0,0.0,81,0.00,,---,0.00,VWS V15.00,2016-02-13 02:13:00,
2016-02-12 21:18:00,6.7,2.1,29.95,ESE,122,0.0,0.0,81,0.00,,---,0.00,VWS V15.00,2016-02-13 02:18:00,
2016-02-12 21:23:00,6.6,2.3,29.95,ESE,110,1.0,2.0,82,0.00,,---,0.00,VWS V15.00,2016-02-13 02:23:00,
2016-02-12 21:28:00,6.2,1.6,29.95,ESE,110,0.0,0.0,81,0.00,,---,0.00,VWS V15.00,2016-02-13 02:28:00,
2016-02-12 21:33:00,6.0,1.7,29.95,ESE,110,0.0,0.0,82,0.00,,---,0.00,VWS V15.00,2016-02-13 02:33:00,
2016-02-12 21:38:00,5.8,1.5,29.95,ESE,110,0.0,0.0,82,0.00,,---,0.00,VWS V15.00,2016-02-13 02:38:00,
2016-02-12 21:43:00,5.6,1.3,29.95,ESE,110,0.0,0.0,82,0.00,,---,0.00,VWS V15.00,2016-02-13 02:43:00,
2016-02-12 21:48:00,5.4,1.4,29.94,ESE,110,0.0,0.0,83,0.00,,---,0.00,VWS V15.00,2016-02-13 02:48:00,
2016-02-12 21:53:00,5.1,1.1,29.94,ESE,110,0.0,0.0,83,0.00,,---,0.00,VWS V15.00,2016-02-13 02:53:00,
2016-02-12 21:58:00,5.0,1.0,29.94,ESE,110,0.0,0.0,83,0.00,,---,0.00,VWS V15.00,2016-02-13 02:58:00,